Location: Unspecified
(0.0000°N, 0.0000°E)
Time: 08:30:43
(UTC+00:00)

Tiros 1 despin weight - Pass Details

Date: 07 October 2023
Orbit: 583 x 627 km, 48.2° (Epoch: 05 December)

Event Time Altitude Azimuth Distance (km) Brightness Sun altitude
Rises 02:19:11 0° 307° (NW) 2,786 - -51.9°
Reaches altitude 10° 02:21:35 10° 298° (WNW) 1,888 - -51.3°
Maximum altitude 02:25:33 36° 231° (SW) 923 - -50.3°
Drops below altitude 10° 02:29:34 10° 163° (SSE) 1,899 - -49.3°
Sets 02:31:59 0° 155° (SSE) 2,805 - -48.7°
